When you browse on this site, cookies collect data to enhance your experience and personalize the content and advertising you see.
Visit our Privacy Policy to learn more. By continuing to use the site, you agree to this use of cookies and data.
  • In Belgien
  • Länderverzeichnis
  • Für 7 Tage
  • Wassertemperatur
  • Wetterkarte
  • Widgets
  • user-avatar
    Anmelden

    Stündliche Wetter Koptyazhiha

    Heute, 5 Juni, Freitag

    Zeit Temperatur Niederschläge Wind Luftdruck Luftfeuchtigkeit
    00:00 +12°C° 0.1 mm 2 m/S 738 mmHg 97%
    01:00 +12°C° 0.1 mm 2 m/S 739 mmHg 97%
    02:00 +12°C° 0 mm 2 m/S 738 mmHg 98%
    03:00 +12°C° 0.1 mm 2 m/S 739 mmHg 97%
    04:00 +11°C° 0.1 mm 3 m/S 739 mmHg 97%
    05:00 +11°C° 0.1 mm 3 m/S 739 mmHg 96%
    06:00 +12°C° 0 mm 3 m/S 740 mmHg 91%
    07:00 +13°C° 0 mm 4 m/S 740 mmHg 85%
    08:00 +14°C° 0 mm 4 m/S 741 mmHg 79%
    09:00 +17°C° 0.1 mm 4 m/S 741 mmHg 73%
    10:00 +18°C° 0.1 mm 4 m/S 741 mmHg 66%
    11:00 +19°C° 0.1 mm 4 m/S 741 mmHg 60%
    12:00 +19°C° 0.4 mm 4 m/S 741 mmHg 59%
    13:00 +19°C° 0.4 mm 4 m/S 741 mmHg 59%
    14:00 +20°C° 0.4 mm 4 m/S 741 mmHg 58%
    15:00 +19°C° 0.1 mm 3 m/S 741 mmHg 62%
    16:00 +19°C° 0.1 mm 3 m/S 741 mmHg 65%
    17:00 +19°C° 0.1 mm 3 m/S 741 mmHg 69%
    18:00 +17°C° 0.1 mm 2 m/S 741 mmHg 77%
    19:00 +16°C° 0.1 mm 2 m/S 742 mmHg 84%
    20:00 +14°C° 0.1 mm 1 m/S 742 mmHg 91%
    21:00 +13°C° 0 mm 1 m/S 742 mmHg 93%
    22:00 +13°C° 0 mm 1 m/S 742 mmHg 95%
    23:00 +12°C° 0 mm 1 m/S 742 mmHg 97%

    Morgen, 6 Juni, Samstag

    Zeit Temperatur Niederschläge Wind Luftdruck Luftfeuchtigkeit
    00:00 +11°C° 0 mm 1 m/S 742 mmHg 97%
    01:00 +11°C° 0 mm 1 m/S 743 mmHg 98%
    02:00 +10°C° 0 mm 1 m/S 743 mmHg 98%
    03:00 +10°C° 0 mm 2 m/S 743 mmHg 97%
    04:00 +10°C° 0 mm 2 m/S 743 mmHg 96%
    05:00 +12°C° 0 mm 2 m/S 743 mmHg 95%
    06:00 +13°C° 0 mm 2 m/S 743 mmHg 89%
    07:00 +14°C° 0 mm 3 m/S 743 mmHg 82%
    08:00 +16°C° 0 mm 3 m/S 743 mmHg 76%
    09:00 +18°C° 0 mm 3 m/S 743 mmHg 70%
    10:00 +19°C° 0 mm 3 m/S 743 mmHg 64%
    11:00 +20°C° 0 mm 3 m/S 743 mmHg 58%
    12:00 +21°C° 0 mm 3 m/S 743 mmHg 56%
    13:00 +22°C° 0 mm 4 m/S 743 mmHg 54%
    14:00 +23°C° 0 mm 4 m/S 743 mmHg 51%
    15:00 +22°C° 0.2 mm 4 m/S 743 mmHg 60%
    16:00 +21°C° 0.2 mm 3 m/S 743 mmHg 70%
    17:00 +21°C° 0.2 mm 3 m/S 743 mmHg 79%
    18:00 +19°C° 0.6 mm 3 m/S 743 mmHg 85%
    19:00 +18°C° 0.6 mm 2 m/S 743 mmHg 91%
    20:00 +17°C° 0.6 mm 2 m/S 743 mmHg 96%
    21:00 +17°C° 0 mm 2 m/S 744 mmHg 97%
    22:00 +16°C° 0 mm 2 m/S 744 mmHg 97%
    23:00 +16°C° 0 mm 1 m/S 744 mmHg 98%

    übermorgen, 7 Juni, Sonntag

    Zeit Temperatur Niederschläge Wind Luftdruck Luftfeuchtigkeit
    00:00 +15°C° 0 mm 1 m/S 745 mmHg 98%
    01:00 +15°C° 0 mm 1 m/S 745 mmHg 98%
    02:00 +15°C° 0 mm 1 m/S 746 mmHg 98%
    03:00 +15°C° 0 mm 1 m/S 746 mmHg 97%
    04:00 +15°C° 0 mm 1 m/S 747 mmHg 97%
    05:00 +16°C° 0 mm 1 m/S 747 mmHg 97%
    06:00 +18°C° 0 mm 1 m/S 748 mmHg 89%
    07:00 +20°C° 0 mm 1 m/S 748 mmHg 82%
    08:00 +21°C° 0 mm 1 m/S 749 mmHg 75%
    09:00 +23°C° 0 mm 1 m/S 749 mmHg 67%
    10:00 +24°C° 0 mm 1 m/S 749 mmHg 58%
    11:00 +26°C° 0 mm 1 m/S 750 mmHg 49%
    12:00 +26°C° 0 mm 1 m/S 750 mmHg 46%
    13:00 +27°C° 0 mm 1 m/S 750 mmHg 44%
    14:00 +27°C° 0 mm 1 m/S 750 mmHg 41%
    15:00 +27°C° 0 mm 1 m/S 750 mmHg 44%
    16:00 +27°C° 0 mm 1 m/S 750 mmHg 46%
    17:00 +24°C° 0 mm 0 m/S 750 mmHg 49%
    18:00 +24°C° 0 mm 1 m/S 750 mmHg 58%
    19:00 +22°C° 0 mm 1 m/S 750 mmHg 66%
    20:00 +20°C° 0 mm 1 m/S 750 mmHg 75%
    21:00 +19°C° 0 mm 1 m/S 750 mmHg 79%
    22:00 +18°C° 0 mm 1 m/S 750 mmHg 83%
    23:00 +16°C° 0 mm 1 m/S 750 mmHg 88%

    8 Juni, Montag

    Zeit Temperatur Niederschläge Wind Luftdruck Luftfeuchtigkeit
    00:00 +16°C° 0 mm 1 m/S 750 mmHg 90%
    01:00 +16°C° 0 mm 1 m/S 750 mmHg 92%
    02:00 +15°C° 0 mm 1 m/S 750 mmHg 95%
    03:00 +16°C° 0 mm 1 m/S 750 mmHg 92%
    04:00 +18°C° 0 mm 1 m/S 750 mmHg 90%
    05:00 +19°C° 0 mm 1 m/S 750 mmHg 88%
    06:00 +19°C° 0 mm 2 m/S 750 mmHg 82%
    07:00 +21°C° 0 mm 2 m/S 750 mmHg 75%
    08:00 +24°C° 0 mm 2 m/S 750 mmHg 69%
    09:00 +25°C° 0 mm 2 m/S 750 mmHg 63%
    10:00 +27°C° 0 mm 2 m/S 750 mmHg 58%
    11:00 +28°C° 0 mm 2 m/S 750 mmHg 52%
    12:00 +28°C° 0 mm 2 m/S 750 mmHg 50%
    13:00 +29°C° 0 mm 2 m/S 750 mmHg 49%
    14:00 +29°C° 0 mm 2 m/S 750 mmHg 48%
    15:00 +29°C° 0 mm 2 m/S 750 mmHg 52%
    16:00 +28°C° 0 mm 2 m/S 750 mmHg 56%
    17:00 +28°C° 0 mm 3 m/S 749 mmHg 60%
    18:00 +26°C° 0 mm 2 m/S 749 mmHg 69%
    19:00 +24°C° 0 mm 2 m/S 750 mmHg 78%
    20:00 +23°C° 0 mm 2 m/S 750 mmHg 86%
    21:00 +21°C° 0 mm 2 m/S 750 mmHg 89%
    22:00 +20°C° 0 mm 2 m/S 750 mmHg 92%
    23:00 +19°C° 0 mm 2 m/S 750 mmHg 94%

    9 Juni, Dienstag

    Zeit Temperatur Niederschläge Wind Luftdruck Luftfeuchtigkeit
    00:00 +19°C° 0 mm 2 m/S 750 mmHg 95%
    01:00 +18°C° 0 mm 2 m/S 750 mmHg 96%
    02:00 +18°C° 0 mm 2 m/S 750 mmHg 96%
    03:00 +18°C° 0 mm 2 m/S 750 mmHg 93%
    04:00 +19°C° 0 mm 2 m/S 751 mmHg 89%
    05:00 +19°C° 0 mm 3 m/S 751 mmHg 86%
    06:00 +21°C° 0 mm 3 m/S 751 mmHg 79%
    07:00 +22°C° 0 mm 3 m/S 751 mmHg 72%
    08:00 +25°C° 0 mm 3 m/S 751 mmHg 66%
    09:00 +26°C° 0 mm 3 m/S 751 mmHg 62%
    10:00 +27°C° 0 mm 4 m/S 751 mmHg 58%
    11:00 +28°C° 0 mm 4 m/S 751 mmHg 54%
    12:00 +28°C° 0 mm 4 m/S 751 mmHg 53%
    13:00 +28°C° 0 mm 4 m/S 751 mmHg 52%
    14:00 +29°C° 0 mm 4 m/S 751 mmHg 51%
    15:00 +28°C° 0 mm 4 m/S 751 mmHg 53%
    16:00 +28°C° 0 mm 3 m/S 751 mmHg 54%
    17:00 +28°C° 0 mm 3 m/S 751 mmHg 56%
    18:00 +26°C° 0 mm 3 m/S 751 mmHg 63%
    19:00 +24°C° 0 mm 2 m/S 751 mmHg 71%
    20:00 +21°C° 0 mm 2 m/S 751 mmHg 79%
    21:00 +20°C° 0 mm 2 m/S 751 mmHg 81%
    22:00 +19°C° 0 mm 2 m/S 751 mmHg 83%
    23:00 +18°C° 0 mm 2 m/S 752 mmHg 85%

    10 Juni, Mittwoch

    Zeit Temperatur Niederschläge Wind Luftdruck Luftfeuchtigkeit
    00:00 +17°C° 0 mm 2 m/S 752 mmHg 86%
    01:00 +17°C° 0 mm 2 m/S 752 mmHg 86%
    02:00 +16°C° 0 mm 1 m/S 752 mmHg 87%
    03:00 +18°C° 0 mm 1 m/S 752 mmHg 85%
    04:00 +18°C° 0 mm 1 m/S 752 mmHg 83%
    05:00 +19°C° 0 mm 1 m/S 752 mmHg 82%
    06:00 +20°C° 0 mm 2 m/S 752 mmHg 75%
    07:00 +23°C° 0 mm 2 m/S 752 mmHg 68%
    08:00 +25°C° 0 mm 2 m/S 752 mmHg 61%
    09:00 +26°C° 0 mm 3 m/S 752 mmHg 56%
    10:00 +27°C° 0 mm 3 m/S 752 mmHg 51%
    11:00 +28°C° 0 mm 3 m/S 752 mmHg 46%
    12:00 +29°C° 0 mm 3 m/S 751 mmHg 45%
    13:00 +29°C° 0 mm 3 m/S 751 mmHg 44%
    14:00 +29°C° 0 mm 4 m/S 751 mmHg 44%
    15:00 +29°C° 0 mm 3 m/S 751 mmHg 48%
    16:00 +28°C° 0 mm 2 m/S 750 mmHg 52%
    17:00 +27°C° 0 mm 2 m/S 750 mmHg 57%
    18:00 +25°C° 0.1 mm 2 m/S 750 mmHg 65%
    19:00 +24°C° 0.1 mm 2 m/S 750 mmHg 74%
    20:00 +21°C° 0.1 mm 2 m/S 750 mmHg 83%
    21:00 +21°C° 0.1 mm 1 m/S 750 mmHg 86%
    22:00 +20°C° 0.1 mm 1 m/S 750 mmHg 89%
    23:00 +19°C° 0.1 mm 1 m/S 750 mmHg 91%
    Mehr zeigen